Simultaneous Nadir Overpasses (SNOs) Predictions

Prediction of SNOs between METOP-B and NOAA-19 Satellite Orbit:

Table of predicted SNOs for the next 14.0 days since TLE Epoch: 11/10/2012
Index Date (METOP-B) Time (METOP-B) METOP-B Lat,Lon Date (NOAA-19) Time (NOAA-19) NOAA-19 Lat,Lon Distance(km) Time Diff (sec)
1 11/16/2012 01:06:49 -73.64, -22.81 11/16/2012 01:05:40 -73.66, -24.89 65.38 69
2 11/16/2012 01:57:37 73.20, 143.53 11/16/2012 01:56:29 73.18, 143.48 2.88 68
3 11/16/2012 02:48:20 -73.18, -49.20 11/16/2012 02:47:35 -73.18, -49.28 2.57 45
4 11/16/2012 03:39:00 73.14, 118.04 11/16/2012 03:38:33 73.14, 118.06 0.59 27
5 11/16/2012 04:29:43 -73.11, -74.69 11/16/2012 04:29:39 -73.13, -74.70 1.89 4
6 11/16/2012 05:20:22 73.12, 92.67 11/16/2012 05:20:37 73.09, 92.65 3.44 15
7 11/16/2012 06:11:05 -73.10,-100.06 11/16/2012 06:11:43 -73.08,-100.11 2.24 38
8 11/16/2012 07:01:45 73.05, 67.18 11/16/2012 07:02:41 73.04, 67.23 1.82 56
9 11/16/2012 07:52:32 -72.83,-125.97 11/16/2012 07:53:44 -72.89,-125.21 26.00 72




NCC Satellite Simultaneous Nadir Overpasses (SNOs) Prediction Service
